Погода в Рае

Великобритания     50°57′08″N   0°44′08″E
темп.,
°C
ветер,
м/с
пор.,
м/с
влажн.,
%
обл.,
%
осадки,
мм/ч
давл.,
гПа
погр.,
м
20 сентября, пн
пн2001:00+14ссз3795100 1.0 1017203
04:00+14ссз599057 0.2 1017313
07:00+13ссз5989100 0.3 1019254
10:00+15с588897 0.0 1021393
13:00+18с776939 0.0 1021763
16:00+17ссв67625 0.0 1023652
19:00+13ссв477410 0.0 1025185
22:00+10ссв37780 0.0 1027156
21 сентября, вт
вт2101:00+10с3581100 0.0 102893
04:00+10с358067 0.0 102886
07:00+9ссв348447 0.0 103056
10:00+15св34596 0.0 1031474
13:00+17в2352100 0.0 1030924
16:00+17юв2254100 0.0 1030488
19:00+11юв2273100 0.0 103124
22:00+10в1173100 0.0 103112
22 сентября, ср
ср2201:00+10св1170100 0.0 103010
04:00+9сз11709 0.0 103010
07:00+9сз117096 0.0 102910
10:00+15ю225376 0.0 1029241
13:00+17ююз3349100 0.0 1028487
16:00+17ююз4454100 0.0 1026406
19:00+12юз447649 0.0 102547
22:00+11з33826 0.0 102534
23 сентября, чт
чт2301:00+11з228824 0.0 102319
04:00+10з339137 0.0 102229
07:00+10зсз229398 0.0 102129
10:00+16з3568100 0.0 1021362
13:00+20зюз4661100 0.0 1019902
16:00+19з5769100 0.0 1017840
19:00+15зюз348873 0.0 101742
22:00+15з379290 0.0 1017138
24 сентября, пт
пт2401:00+13з37966 0.0 1016148
04:00+12зюз36968 0.0 1015130
07:00+12зюз379635 0.0 1014133
10:00+17зюз69727 0.0 1014488
13:00+20зюз795724 0.0 1013904
16:00+19юз79633 0.0 1012599
19:00+13зюз511790 0.0 1012190
22:00+12зюз46910 0.0 101396